Overview Statistics Trail Chart Weather Telemetry Raw packets
 

This is the latest recevied weather packets stored in our database for station/object W8RSN-13. If no packets are shown the sender has not sent any weather packets the latest 10 day(s).

<< 21 22 23 24 25 26 27 >>
Time Temp. Humidity Pressure Rain* Wind** Luminosity Snow
1788535174 18.89° C 73% 1015.5 hPa - - - -
1788534873 18.33° C 73% 1015.7 hPa - - - -
1788534572 18.33° C 72% 1015.9 hPa - - - -
1788534271 18.33° C 72% 1015.7 hPa - - - -
1788533970 18.33° C 71% 1015.6 hPa - - - -
1788533669 17.78° C 74% 1015.6 hPa - - - -
1788533368 17.22° C 75% 1015.3 hPa - - - -
1788533067 17.22° C 74% 1015.2 hPa - - - -
1788532767 17.22° C 75% 1015.2 hPa - - - -
1788532466 17.22° C 75% 1015.3 hPa - - - -
1788532176 16.67° C 77% 1015.4 hPa - - - -
1788531864 16.11° C 78% 1015.5 hPa - - - -
1788531563 16.11° C 79% 1015.7 hPa - - - -
1788531262 15.56° C 81% 1015.4 hPa - - - -
1788530961 15° C 82% 1015.5 hPa - - - -
1788530660 15° C 82% 1015.3 hPa - - - -
1788530359 15° C 83% 1015.3 hPa - - - -
1788530059 14.44° C 85% 1015.4 hPa - - - -
1788529757 14.44° C 85% 1015.3 hPa - - - -
1788529465 14.44° C 84% 1015.1 hPa - - - -
1788529165 14.44° C 85% 1015.2 hPa - - - -
1788528864 14.44° C 85% 1015.2 hPa - - - -
1788528563 14.44° C 85% 1015.1 hPa - - - -
1788528262 14.44° C 84% 1015.1 hPa - - - -
1788527961 15° C 84% 1015.1 hPa - - - -

* Rain since midnight (hover to see other rain measurements)
** Current wind speed in m/s (hover to see current wind gust speed)